Flag for Germany Weather past 2 weeks in Konstanz, Baden-Württemberg, Germany

Now
65 °F

Overcast.


Feels Like: 65 °F
Forecast: 43 / 71 °F
Wind: 1 mph from Southeast

Location: Konstanz

Current Time: Aug 21, 2014 at 8:27:46 PM

Latest Report: Aug 21, 2014 at 8:00 PM


Visibility: 44 mi

Pressure: 29.98 "Hg

Humidity: 50%

Dew point: 46 °F

Location of KonstanzLocation

Historic Weather in Konstanz — Graph

°F

Konstanz temperature yesterday

Maximum temperature yesterday: 69 °F (at 3:00 PM)
Minimum temperature yesterday: 56 °F (at 7:00 AM)
Average temperature yesterday: 61 °F

Past Weeks' High & Low Weather Summary

 TemperatureHumidityPressure
High83 °F (Aug 10, 6:00 PM)97% (Aug 17, 7:00 AM)30.21 "Hg (Aug 17, 7:00 AM)
Low48 °F (Aug 17, 7:00 AM)38% (Aug 21, 5:00 PM)29.66 "Hg (Aug 13, 1:00 PM)
Average63 °F73%29.96 "Hg
* Reported Aug 6 7:00 PM — Aug 21 7:00 PM, Konstanz, Weather by CustomWeather, © 2014

Note: Actual official high and low records may vary slightly from our data, if they occured in-between our weather recording intervals... More about our weather records

Advertising

Konstanz weather history for previous 24 hours

 ConditionsComfort  
Time TempWeatherWind HumidityBarometerVisibility
7:00 PM
Aug 21
67 °FOvercast.1 mph46%29.97 "Hg43 mi
6:00 PM69 °FScattered clouds.2 mph39%29.97 "Hg43 mi
5:00 PM69 °FPartly sunny.3 mph38%29.98 "Hg28 mi
4:00 PM69 °FPartly sunny.2 mph45%29.98 "Hg28 mi
3:00 PM68 °FPartly sunny.2 mph45%30.01 "Hg28 mi
2:00 PM68 °FPartly sunny.2 mph47%30.02 "Hg28 mi
1:00 PM65 °FPartly sunny.1 mph53%30.04 "Hg28 mi
12:00 PM63 °FPartly sunny.2 mph60%30.05 "Hg28 mi
11:00 AM63 °FScattered clouds.2 mph64%30.06 "Hg28 mi
10:00 AM58 °FScattered clouds.1 mph71%30.08 "Hg28 mi
9:00 AM58 °FScattered clouds.1 mph71%30.08 "Hg28 mi
8:00 AM54 °FScattered clouds.1 mph86%30.08 "Hg28 mi
7:00 AM54 °FPartly sunny.1 mph85%30.08 "Hg25 mi
6:00 AM55 °FOvercast.2 mph79%30.07 "Hg28 mi
5:00 AM56 °FOvercast.3 mph77%30.07 "Hg43 mi
4:00 AM56 °FOvercast.1 mph80%30.07 "Hg37 mi
3:00 AM56 °FOvercast.2 mph77%30.07 "Hg37 mi
2:00 AM56 °FOvercast.2 mph76%30.06 "Hg40 mi
1:00 AM57 °FOvercast.2 mph74%30.04 "Hg43 mi
12:00 AM57 °FOvercast.2 mph77%30.02 "Hg43 mi
11:00 PM
Aug 20
58 °FDrizzle. Overcast.3 mph74%30.02 "Hg31 mi
10:00 PM61 °FOvercast.1 mph67%30.00 "Hg43 mi
9:00 PM62 °FOvercast.1 mph64%29.97 "Hg43 mi
8:00 PM63 °FOvercast.2 mph68%29.97 "Hg34 mi
Weather by CustomWeather, © 2014

See weather overviewHow to use our weather pages